CW2071 Weather Reports


time (UTC)temp
C
wind
direction
speed
KPH
gust
KPH
rain 1hr
cm
rain 24hr
cm
rain mn
cm
humidity
%
barometer
mb
20260906193023 29 66 4.8 16.1 0.00 0.08 0.08 69 1015.3
20260906192535 29 123 8.0 16.1 0.00 0.08 0.08 71 1015.1
20260906192022 29 89 4.8 11.3 0.00 0.08 0.08 70 1015.1
20260906191535 28 51 3.2 11.3 0.00 0.08 0.08 68 1015.2
20260906191020 28 46 4.8 8.0 0.00 0.08 0.08 69 1015.2
20260906190515 28 46 3.2 8.0 0.00 0.08 0.08 70 1015.4
20260906190023 28 331 4.8 11.3 0.00 0.08 0.08 68 1015.4
20260906185558 28 40 3.2 11.3 0.00 0.08 0.08 69 1015.5
20260906185045 28 125 4.8 12.9 0.00 0.08 0.08 69 1015.5
20260906184523 28 1 6.4 12.9 0.00 0.08 0.08 73 1015.4
20260906184037 28 323 6.4 12.9 0.00 0.08 0.08 74 1015.5
20260906183532 28 35 3.2 16.1 0.00 0.08 0.08 74 1015.6
20260906183019 28 1 6.4 16.1 0.00 0.08 0.08 74 1015.8
20260906182552 28 46 3.2 8.0 0.00 0.08 0.08 74 1016.0
20260906182037 28 46 4.8 14.5 0.00 0.08 0.08 75 1016.1
20260906181524 28 6 4.8 14.5 0.00 0.08 0.08 76 1016.1
20260906181056 28 206 3.2 9.7 0.00 0.08 0.08 76 1016.2
20260906180522 27 334 3.2 8.0 0.00 0.08 0.08 76 1016.4
20260906180034 27 145 3.2 9.7 0.00 0.08 0.08 77 1016.6
20260906175537 27 89 1.6 11.3 0.00 0.08 0.08 77 1016.6
20260906175022 27 52 3.2 11.3 0.00 0.08 0.08 78 1016.6
20260906174547 27 89 4.8 11.3 0.00 0.08 0.08 81 1016.6
20260906174036 26 32 3.2 8.0 0.00 0.08 0.08 81 1016.5
20260906173520 26 336 3.2 8.0 0.00 0.08 0.08 81 1016.3
20260906173037 26 135 1.6 8.0 0.00 0.08 0.08 81 1016.6
20260906172522 26 277 1.6 9.7 0.00 0.08 0.08 81 1016.7
20260906172036 26 178 3.2 9.7 0.00 0.08 0.08 81 1016.4
20260906171524 26 46 4.8 11.3 0.00 0.08 0.08 81 1016.4
20260906171016 26 119 3.2 11.3 0.00 0.08 0.08 82 1016.6
20260906170533 26 124 4.8 12.9 0.00 0.08 0.08 83 1016.4
20260906170019 26 103 6.4 12.9 0.00 0.08 0.08 82 1016.3
20260906165555 26 108 4.8 9.7 0.00 0.08 0.08 82 1016.5
20260906165018 26 89 3.2 11.3 0.00 0.08 0.08 82 1016.5
20260906164532 26 72 3.2 11.3 0.00 0.08 0.08 84 1016.8
20260906164041 26 6 4.8 9.7 0.00 0.08 0.08 85 1016.8
20260906163537 25 8 4.8 9.7 0.00 0.08 0.08 85 1016.6
20260906163025 25 125 3.2 9.7 0.00 0.08 0.08 85 1016.6
20260906162516 25 56 1.6 9.7 0.00 0.08 0.08 87 1016.7
20260906162051 25 32 4.8 9.7 0.00 0.08 0.08 87 1016.8
20260906161515 25 40 4.8 8.0 0.00 0.08 0.08 87 1016.7
20260906161017 25 72 3.2 11.3 0.00 0.08 0.08 88 1016.7
20260906160536 25 32 4.8 11.3 0.00 0.08 0.08 89 1016.7
20260906160022 25 114 6.4 11.3 0.00 0.08 0.08 89 1016.7
20260906155535 24 76 6.4 11.3 0.00 0.08 0.08 90 1016.5
20260906155019 24 124 3.2 9.7 0.00 0.08 0.08 91 1016.5
20260906154534 24 46 3.2 9.7 0.00 0.08 0.08 92 1016.3
20260906154022 23 130 3.2 9.7 0.00 0.08 0.08 92 1016.0
20260906153534 23 89 4.8 11.3 0.00 0.08 0.08 93 1015.8
20260906153030 23 103 6.4 11.3 0.00 0.08 0.08 93 1015.8
20260906152514 23 103 4.8 12.9 0.00 0.08 0.08 93 1015.8
20260906152029 23 121 6.4 12.9 0.00 0.08 0.08 94 1015.8
20260906151538 23 127 6.4 9.7 0.00 0.08 0.08 94 1015.8
20260906151028 23 107 3.2 8.0 0.00 0.08 0.08 94 1015.8
20260906150603 23 122 4.8 8.0 0.00 0.08 0.08 94 1015.8
20260906150016 23 105 3.2 4.8 0.00 0.08 0.08 94 1015.9
20260906145533 23 1 1.6 4.8 0.00 0.08 0.08 94 1015.9
20260906145036 23 223 1.6 3.2 0.03 0.08 0.08 94 1016.0
20260906144521 22 223 1.6 3.2 0.03 0.08 0.08 94 1016.0
20260906144022 22 206 1.6 4.8 0.05 0.08 0.08 94 1015.9
20260906143535 22 336 1.6 8.0 0.05 0.08 0.08 94 1016.0
20260906143019 22 324 3.2 4.8 0.05 0.08 0.08 94 1015.8
20260906142534 22 1 1.6 6.4 0.05 0.08 0.08 93 1015.6
20260906142018 22 46 3.2 6.4 0.08 0.08 0.08 93 1015.8
20260906141533 22 314 0.0 6.4 0.08 0.08 0.08 93 1015.9
20260906141017 22 301 1.6 4.8 0.08 0.08 0.08 93 1016.0
20260906140533 22 206 1.6 3.2 0.08 0.08 0.08 92 1016.4
20260906140019 22 241 0.0 4.8 0.08 0.08 0.08 92 1016.3
20260906135533 22 197 1.6 6.4 0.08 0.08 0.08 92 1016.5
20260906135039 23 1 3.2 6.4 0.05 0.05 0.05 92 1016.6
20260906134535 23 178 1.6 3.2 0.05 0.05 0.05 91 1016.6
20260906134020 23 223 1.6 8.0 0.03 0.03 0.03 91 1016.6
20260906133534 23 327 1.6 8.0 0.03 0.03 0.03 90 1016.6
20260906133039 23 209 3.2 9.7 0.03 0.03 0.03 90 1016.7
20260906132525 23 314 4.8 9.7 0.03 0.03 0.03 90 1016.5
20260906132017 23 89 1.6 6.4 0.00 0.00 0.00 90 1016.5
20260906131532 23 336 1.6 8.0 0.00 0.00 0.00 89 1016.4
20260906131017 23 108 4.8 8.0 0.00 0.00 0.00 89 1016.3
20260906130517 23 103 3.2 9.7 0.00 0.00 0.00 89 1016.1
20260906130033 23 178 3.2 9.7 0.00 0.00 0.00 88 1016.0
20260906125524 23 252 3.2 6.4 0.00 0.00 0.00 88 1016.0
20260906125017 23 206 3.2 6.4 0.00 0.00 0.00 88 1015.9
20260906124532 23 321 3.2 6.4 0.00 0.00 0.00 88 1015.9
20260906124039 23 252 1.6 6.4 0.00 0.00 0.00 88 1016.1
20260906123532 23 314 3.2 6.4 0.00 0.00 0.00 88 1016.0
20260906123018 23 340 3.2 4.8 0.00 0.00 0.00 88 1015.8
20260906122532 23 303 1.6 8.0 0.00 0.00 0.00 88 1015.9
20260906122018 23 269 4.8 8.0 0.00 0.00 0.00 87 1015.3
20260906121531 23 254 3.2 6.4 0.00 0.00 0.00 87 1015.4
20260906121016 23 283 3.2 6.4 0.00 0.00 0.00 87 1015.1
20260906120531 23 121 3.2 6.4 0.00 0.00 0.00 87 1014.7
20260906120038 23 115 3.2 6.4 0.00 0.00 0.00 87 1014.6
20260906115543 23 117 1.6 3.2 0.00 0.00 0.00 86 1014.6
20260906115056 23 76 1.6 3.2 0.00 0.00 0.00 86 1014.6
20260906114523 23 63 1.6 4.8 0.00 0.00 0.00 86 1014.5
20260906114016 23 28 0.0 4.8 0.00 0.00 0.00 86 1014.4
20260906113529 23 113 1.6 6.4 0.00 0.00 0.00 86 1014.4
20260906113015 24 117 1.6 6.4 0.00 0.00 0.00 86 1014.3
20260906112531 24 89 4.8 6.4 0.00 0.00 0.00 85 1014.3
20260906112039 24 60 4.8 8.0 0.00 0.00 0.00 85 1014.2
20260906111535 24 126 4.8 8.0 0.00 0.00 0.00 85 1014.2
20260906111023 24 101 4.8 6.4 0.00 0.00 0.00 85 1014.2
20260906110517 24 108 4.8 8.0 0.00 0.00 0.00 85 1014.2
20260906110031 24 102 4.8 8.0 0.00 0.00 0.00 85 1014.2
20260906105516 24 113 4.8 8.0 0.00 0.00 0.00 85 1014.2
20260906105032 24 98 4.8 6.4 0.00 0.00 0.00 86 1014.2
20260906104516 24 113 3.2 6.4 0.00 0.00 0.00 86 1014.3
20260906104033 24 98 3.2 6.4 0.00 0.00 0.00 86 1014.4
20260906103539 24 110 3.2 8.0 0.00 0.00 0.00 86 1014.4
20260906103013 23 122 4.8 8.0 0.00 0.00 0.00 87 1014.3
20260906102521 23 101 4.8 11.3 0.00 0.00 0.00 87 1014.3
20260906102035 23 96 6.4 11.3 0.00 0.00 0.00 88 1014.3
20260906101522 23 103 4.8 6.4 0.00 0.00 0.00 89 1014.2
20260906101037 23 56 3.2 4.8 0.00 0.00 0.00 89 1014.3
20260906100524 23 89 1.6 4.8 0.00 0.00 0.00 89 1014.3
20260906100018 23 89 1.6 4.8 0.00 0.00 0.00 90 1014.5
20260906095534 23 63 1.6 6.4 0.00 0.00 0.00 90 1014.4
20260906095021 23 117 3.2 6.4 0.00 0.00 0.00 90 1014.3
20260906094553 23 102 4.8 6.4 0.00 0.00 0.00 90 1014.1
20260906094037 23 127 3.2 6.4 0.00 0.00 0.00 90 1014.2
20260906093523 23 145 3.2 6.4 0.00 0.00 0.00 90 1014.2
20260906093058 23 108 3.2 6.4 0.00 0.00 0.00 90 1014.1
20260906092545 23 129 3.2 6.4 0.00 0.00 0.00 90 1014.0
20260906092016 23 108 4.8 6.4 0.00 0.00 0.00 90 1014.0
20260906091514 24 89 3.2 6.4 0.00 0.00 0.00 90 1014.0
20260906091030 24 115 4.8 6.4 0.00 0.00 0.00 90 1014.0
20260906090518 24 105 3.2 8.0 0.00 0.00 0.00 90 1014.0
20260906090053 24 115 4.8 8.0 0.00 0.00 0.00 90 1014.1
20260906085516 24 105 3.2 8.0 0.00 0.00 0.00 90 1014.2
20260906085022 24 152 3.2 4.8 0.00 0.00 0.00 90 1014.2
20260906084537 24 113 1.6 6.4 0.00 0.00 0.00 90 1014.2
20260906084023 24 129 3.2 6.4 0.00 0.00 0.00 91 1014.2
20260906083555 24 117 3.2 6.4 0.00 0.00 0.00 91 1014.3
20260906083018 24 113 3.2 6.4 0.00 0.00 0.00 91 1014.4
20260906082513 25 135 3.2 6.4 0.00 0.00 0.00 91 1014.3
20260906082031 25 81 3.2 6.4 0.00 0.00 0.00 90 1014.4
20260906081520 25 120 4.8 6.4 0.00 0.00 0.00 91 1014.4
20260906081034 25 126 3.2 6.4 0.00 0.00 0.00 90 1014.5
20260906080521 25 117 3.2 6.4 0.00 0.00 0.00 90 1014.6
20260906080035 25 46 1.6 4.8 0.00 0.00 0.00 90 1014.6
20260906075521 25 102 1.6 6.4 0.00 0.00 0.00 90 1014.4
20260906075014 25 107 3.2 6.4 0.00 0.00 0.00 90 1014.4
20260906074530 25 100 3.2 6.4 0.00 0.00 0.00 90 1014.3
20260906074015 25 102 3.2 6.4 0.00 0.00 0.00 90 1014.2
20260906073532 25 129 3.2 8.0 0.00 0.00 0.00 90 1014.2
20260906073037 25 127 4.8 8.0 0.00 0.00 0.00 90 1014.3
20260906072524 25 119 4.8 6.4 0.00 0.00 0.00 90 1014.3
20260906072059 25 126 4.8 6.4 0.00 0.00 0.00 90 1014.3
20260906071529 25 89 3.2 6.4 0.00 0.00 0.00 90 1014.3
20260906071034 25 100 3.2 6.4 0.00 0.00 0.00 90 1014.3
20260906070522 25 131 3.2 8.0 0.00 0.00 0.00 90 1014.3
20260906070016 25 101 4.8 8.0 0.00 0.00 0.00 90 1014.2
20260906065517 25 107 4.8 8.0 0.00 0.00 0.00 90 1014.3
20260906065033 25 113 3.2 6.4 0.00 0.00 0.00 90 1014.3
20260906064539 25 120 4.8 9.7 0.00 0.00 0.00 90 1014.2
20260906064034 25 144 6.4 9.7 0.00 0.00 0.00 90 1014.2
20260906063517 25 118 6.4 9.7 0.00 0.00 0.00 90 1014.2
20260906063034 25 89 6.4 12.9 0.00 0.00 0.00 89 1014.2
20260906062542 25 100 6.4 12.9 0.00 0.00 0.00 89 1014.3
20260906062035 25 127 4.8 8.0 0.00 0.00 0.00 89 1014.3
20260906061520 25 102 4.8 9.7 0.00 0.00 0.00 89 1014.3
20260906061013 26 114 4.8 11.3 0.00 0.00 0.00 89 1014.3
20260906060550 26 126 6.4 11.3 0.00 0.00 0.00 89 1014.3
20260906060035 26 115 6.4 11.3 0.00 0.00 0.00 89 1014.3
20260906055540 26 128 8.0 12.9 0.00 0.00 0.00 89 1014.3
20260906055050 26 117 6.4 12.9 0.00 0.00 0.00 89 1014.3
20260906054515 26 89 4.8 12.9 0.00 0.00 0.00 89 1014.4
20260906054031 26 105 6.4 11.3 0.00 0.00 0.00 89 1014.3
20260906053517 26 89 8.0 11.3 0.00 0.00 0.00 89 1014.3
20260906053054 26 110 6.4 11.3 0.00 0.00 0.00 89 1014.3
20260906052517 26 89 6.4 11.3 0.00 0.00 0.00 89 1014.3
20260906052053 26 108 6.4 11.3 0.00 0.00 0.00 89 1014.3
20260906051518 26 101 4.8 11.3 0.00 0.00 0.00 88 1014.3
20260906051033 26 115 6.4 11.3 0.00 0.00 0.00 88 1014.4
20260906050540 26 110 6.4 14.5 0.00 0.00 0.00 88 1014.3
20260906050026 26 98 8.0 14.5 0.00 0.00 0.00 88 1014.4
20260906045532 26 96 6.4 11.3 0.00 0.00 0.00 88 1014.5
20260906045038 26 136 6.4 9.7 0.00 0.00 0.00 87 1014.5
20260906044527 26 102 4.8 16.1 0.00 0.00 0.00 87 1014.4
20260906044040 26 107 8.0 16.1 0.00 0.00 0.00 87 1014.4
20260906043529 26 120 6.4 11.3 0.00 0.00 0.00 87 1014.4
20260906043021 26 117 6.4 11.3 0.00 0.00 0.00 87 1014.4
20260906042533 26 119 6.4 11.3 0.00 0.00 0.00 86 1014.4
20260906042016 26 110 6.4 11.3 0.00 0.00 0.00 86 1014.4
20260906041533 26 112 8.0 11.3 0.00 0.00 0.00 86 1014.4
20260906041017 27 128 6.4 11.3 0.00 0.00 0.00 85 1014.4
20260906040554 27 135 4.8 12.9 0.00 0.00 0.00 85 1014.3
20260906040019 27 89 4.8 12.9 0.00 0.00 0.00 85 1014.3
20260906035537 27 115 4.8 9.7 0.00 0.00 0.00 85 1014.2
20260906035044 27 114 4.8 11.3 0.00 0.00 0.00 85 1014.2
20260906034517 27 117 4.8 11.3 0.00 0.00 0.00 85 1014.2
20260906034034 27 103 4.8 12.9 0.00 0.00 0.00 85 1014.2
20260906033518 27 72 6.4 12.9 0.00 0.00 0.00 85 1014.2
20260906033035 27 112 6.4 11.3 0.00 0.00 0.00 84 1014.2
20260906032541 27 124 4.8 11.3 0.00 0.00 0.00 84 1014.3
20260906032030 27 98 6.4 11.3 0.00 0.00 0.00 84 1014.3
20260906031515 27 89 6.4 12.9 0.00 0.00 0.00 84 1014.3
20260906031023 27 108 6.4 12.9 0.00 0.00 0.00 84 1014.2
20260906030539 27 70 6.4 11.3 0.00 0.00 0.00 84 1014.2
20260906030027 27 105 6.4 11.3 0.00 0.00 0.00 84 1014.1
20260906025520 27 102 6.4 11.3 0.00 0.00 0.00 84 1014.1
20260906025027 27 89 6.4 11.3 0.00 0.00 0.00 83 1014.0
20260906024536 27 110 6.4 11.3 0.00 0.00 0.00 83 1013.9
20260906024033 27 89 6.4 11.3 0.00 0.00 0.00 83 1013.9
20260906023518 27 110 6.4 12.9 0.00 0.00 0.00 83 1013.8
20260906023035 28 120 6.4 12.9 0.00 0.00 0.00 83 1013.7
20260906022520 28 105 4.8 9.7 0.00 0.00 0.00 83 1013.5
20260906022015 28 96 4.8 12.9 0.00 0.00 0.00 83 1013.6
20260906021533 28 74 4.8 12.9 0.00 0.00 0.00 82 1013.5
20260906021018 28 107 3.2 9.7 0.00 0.00 0.00 82 1013.3
20260906020533 28 117 4.8 9.7 0.00 0.00 0.00 82 1013.2
20260906020023 28 127 4.8 9.7 0.00 0.00 0.00 82 1013.0
20260906015538 28 125 4.8 9.7 0.00 0.00 0.00 81 1013.0
20260906015045 28 120 4.8 8.0 0.00 0.00 0.00 81 1012.9
20260906014602 28 135 3.2 4.8 0.00 0.00 0.00 81 1012.8
20260906014029 28 1 1.6 6.4 0.00 0.00 0.00 81 1012.7
20260906013515 28 103 1.6 6.4 0.00 0.00 0.00 80 1012.8
20260906013022 29 119 3.2 8.0 0.00 0.00 0.00 80 1012.5
20260906012516 29 117 3.2 8.0 0.00 0.00 0.00 80 1012.4
20260906012021 29 133 4.8 8.0 0.00 0.00 0.00 79 1012.4
20260906011537 29 113 4.8 6.4 0.00 0.00 0.00 79 1012.3
20260906011026 29 117 3.2 4.8 0.00 0.00 0.00 79 1012.5
20260906010520 30 124 1.6 6.4 0.00 0.00 0.00 78 1012.3
20260906010014 30 63 1.6 6.4 0.00 0.00 0.00 78 1012.3
20260906005516 30 110 3.2 6.4 0.00 0.00 0.00 77 1012.4
20260906005033 30 98 3.2 8.0 0.00 0.00 0.00 77 1012.4
20260906004540 30 89 4.8 8.0 0.00 0.00 0.00 77 1012.3
20260906004034 30 127 4.8 9.7 0.00 0.00 0.00 76 1012.5
20260906003541 31 121 4.8 9.7 0.00 0.00 0.00 76 1012.5
20260906003031 31 74 3.2 6.4 0.00 0.00 0.00 76 1012.4
20260906002517 31 108 3.2 9.7 0.00 0.00 0.00 75 1012.4
20260906002034 31 108 6.4 9.7 0.00 0.00 0.00 75 1012.3
20260906001524 31 127 4.8 9.7 0.00 0.00 0.00 74 1012.1
20260906001016 31 103 4.8 11.3 0.00 0.00 0.00 73 1012.1
20260906000532 31 129 6.4 12.9 0.00 0.00 0.00 73 1012.1
20260906000019 31 118 6.4 12.9 0.00 0.00 0.00 72 1012.1
20260905235535 31 125 6.4 12.9 0.00 0.00 0.00 72 1012.1
20260905235043 32 135 8.0 9.7 0.00 0.00 0.00 72 1012.0
20260905234516 32 145 4.8 9.7 0.00 0.00 0.00 72 1012.0
20260905234023 32 124 4.8 14.5 0.00 0.00 0.00 71 1012.0
20260905233534 32 128 6.4 14.5 0.00 0.00 0.00 70 1012.0
20260905233019 32 152 6.4 12.9 0.00 0.00 0.00 69 1012.1
20260905232555 32 194 8.0 12.9 0.00 0.00 0.00 68 1012.1
20260905232020 32 204 8.0 14.5 0.00 0.00 0.00 67 1012.1
20260905231535 32 192 6.4 14.5 0.00 0.00 0.00 68 1012.0
20260905231021 32 89 6.4 16.1 0.00 0.00 0.00 68 1011.8
20260905230535 32 196 8.0 17.7 0.00 0.00 0.00 67 1011.8
20260905230024 32 139 8.0 17.7 0.00 0.00 0.00 68 1011.9
20260905225516 32 190 8.0 24.1 0.00 0.00 0.00 66 1011.9
20260905225033 33 193 9.7 19.3 0.00 0.00 0.00 67 1011.9
20260905224520 33 174 9.7 19.3 0.00 0.00 0.00 67 1011.8
20260905224016 33 140 9.7 16.1 0.00 0.00 0.00 66 1011.9
20260905223533 33 188 9.7 19.3 0.00 0.00 0.00 67 1011.8
20260905223018 33 199 8.0 19.3 0.00 0.00 0.00 66 1011.8
20260905222533 33 105 9.7 17.7 0.00 0.00 0.00 67 1011.9
20260905222022 33 32 9.7 22.5 0.00 0.00 0.00 67 1012.0
20260905221536 33 210 9.7 22.5 0.00 0.00 0.00 66 1012.0
20260905221019 33 173 11.3 22.5 0.00 0.00 0.00 66 1012.2
20260905220515 33 79 9.7 22.5 0.00 0.00 0.00 66 1012.1
20260905220024 33 133 12.9 22.5 0.00 0.00 0.00 67 1012.2
20260905215516 33 140 9.7 22.5 0.00 0.00 0.00 65 1012.2
20260905215034 32 142 9.7 25.7 0.00 0.00 0.00 67 1012.2
20260905214523 32 215 11.3 25.7 0.00 0.00 0.00 67 1012.1
20260905214033 32 206 11.3 25.7 0.00 0.00 0.00 67 1012.2
20260905213522 32 173 12.9 25.7 0.00 0.00 0.00 66 1012.1
20260905213036 33 194 9.7 22.5 0.00 0.00 0.00 66 1012.3
20260905212544 32 198 12.9 22.5 0.00 0.00 0.00 66 1012.3
20260905212037 32 213 12.9 20.9 0.00 0.00 0.00 66 1012.3
20260905211553 32 148 9.7 25.7 0.00 0.00 0.00 66 1012.5
20260905211018 32 110 11.3 25.7 0.00 0.00 0.00 65 1012.6
20260905210533 32 123 11.3 22.5 0.00 0.00 0.00 63 1012.6
20260905210022 33 189 9.7 22.5 0.00 0.00 0.00 65 1012.6
20260905205536 32 187 8.0 22.5 0.00 0.00 0.00 66 1012.8
20260905205020 32 77 11.3 19.3 0.00 0.00 0.00 66 1012.6
20260905204535 32 138 11.3 33.8 0.00 0.00 0.00 65 1012.8
20260905204043 32 114 11.3 33.8 0.00 0.00 0.00 64 1012.8
20260905203534 32 135 14.5 27.4 0.00 0.00 0.00 65 1012.9
20260905203042 32 112 14.5 25.7 0.00 0.00 0.00 65 1013.0
20260905202529 32 165 9.7 22.5 0.00 0.00 0.00 65 1013.0
20260905202016 32 178 11.3 24.1 0.00 0.00 0.00 64 1013.3
20260905201533 32 113 12.9 24.1 0.00 0.00 0.00 66 1013.5
20260905201017 32 110 14.5 27.4 0.00 0.00 0.00 64 1013.5
20260905200534 33 98 16.1 27.4 0.00 0.00 0.00 64 1013.8
20260905200020 33 121 19.3 32.2 0.00 0.00 0.00 64 1013.9
20260905195533 32 134 19.3 32.2 0.00 0.00 0.00 64 1014.0
20260905195022 32 125 19.3 30.6 0.00 0.00 0.00 63 1014.1
20260905194534 32 125 17.7 29.0 0.00 0.00 0.00 62 1014.3
20260905194020 32 125 17.7 38.6 0.00 0.00 0.00 62 1014.3
20260905193516 32 110 17.7 38.6 0.00 0.00 0.00 59 1014.4